International Skating Union - Official Site

ISU World Cup Inzell
December 4-6, 2015

Draw | Lap Times | Index | World Cup

Referee: Dan  IMMERFALL  (USA)
Starter: Bartosz  DAWIDOWSKI  (POL)
StartTime: EndTime: Air Temp: Ice Temp: Humidity:
11:16 12:04 12.7℃ -6.4℃ 33%
Result 5000m Men Division B
Rankings as of Dec 6 2015 6:51PM
Rank: No.: Name: Nation: Time: Behind: Points:
1 100 Håvard  Bøkko NOR NOR 6:22.88200m - 18.76 - (18.7)
600m - 48.36 - (29.5)
1000m - 1:18.80 - (30.4)
1400m - 1:48.98 - (30.1)
1800m - 2:19.07 - (30.0)
2200m - 2:49.23 - (30.1)
2600m - 3:19.50 - (30.2)
3000m - 3:49.79 - (30.2)
3400m - 4:20.27 - (30.4)
3800m - 4:50.78 - (30.5)
4200m - 5:21.48 - (30.7)
4600m - 5:52.24 - (30.7)
5000m - 6:22.88 - (30.6)
32
2 64 Ryosuke  Tsuchiya JPN JPN 6:24.38200m - 18.70 - (18.6)
600m - 48.50 - (29.8)
1000m - 1:19.07 - (30.5)
1400m - 1:49.74 - (30.6)
1800m - 2:20.55 - (30.8)
2200m - 2:51.20 - (30.6)
2600m - 3:21.83 - (30.6)
3000m - 3:52.23 - (30.3)
3400m - 4:22.58 - (30.3)
3800m - 4:52.99 - (30.4)
4200m - 5:23.39 - (30.3)
4600m - 5:53.67 - (30.2)
5000m - 6:24.38 - (30.7)
1.50 27
3 105 Ole  Bjørnsmoen Næss NOR NOR 6:26.97200m - 19.74 - (19.7)
600m - 49.82 - (30.0)
1000m - 1:19.98 - (30.1)
1400m - 1:50.16 - (30.1)
1800m - 2:20.31 - (30.1)
2200m - 2:50.43 - (30.1)
2600m - 3:20.72 - (30.2)
3000m - 3:51.15 - (30.4)
3400m - 4:21.88 - (30.7)
3800m - 4:52.53 - (30.6)
4200m - 5:23.31 - (30.7)
4600m - 5:54.85 - (31.5)
5000m - 6:26.97 - (32.1)
4.09 23
4 45 Jonas  Pflug GER GER 6:27.05200m - 19.30 - (19.3)
600m - 49.09 - (29.7)
1000m - 1:18.98 - (29.8)
1400m - 1:48.83 - (29.8)
1800m - 2:18.58 - (29.7)
2200m - 2:48.59 - (30.0)
2600m - 3:18.88 - (30.2)
3000m - 3:49.71 - (30.8)
3400m - 4:20.57 - (30.8)
3800m - 4:51.87 - (31.3)
4200m - 5:23.30 - (31.4)
4600m - 5:55.24 - (31.9)
5000m - 6:27.05 - (31.8)
4.17 19
5 65 Shane  Williamson JPN JPN 6:27.14200m - 18.62 - (18.6)
600m - 48.95 - (30.3)
1000m - 1:19.45 - (30.5)
1400m - 1:50.46 - (31.0)
1800m - 2:21.46 - (31.0)
2200m - 2:52.72 - (31.2)
2600m - 3:23.81 - (31.0)
3000m - 3:54.85 - (31.0)
3400m - 4:25.65 - (30.7)
3800m - 4:56.24 - (30.5)
4200m - 5:26.54 - (30.3)
4600m - 5:56.74 - (30.1)
5000m - 6:27.14 - (30.4)
4.26 15
6 82 Haralds  Silovs LAT LAT 6:28.77200m - 18.84 - (18.8)
600m - 48.60 - (29.7)
1000m - 1:18.47 - (29.8)
1400m - 1:48.54 - (30.0)
1800m - 2:18.43 - (29.8)
2200m - 2:48.76 - (30.3)
2600m - 3:19.25 - (30.4)
3000m - 3:49.99 - (30.7)
3400m - 4:20.80 - (30.8)
3800m - 4:52.01 - (31.2)
4200m - 5:23.81 - (31.8)
4600m - 5:55.97 - (32.1)
5000m - 6:28.77 - (32.7)
5.89 11
7 51 Michele  Malfatti ITA ITA 6:28.83200m - 19.25 - (19.2)
600m - 49.71 - (30.4)
1000m - 1:19.89 - (30.1)
1400m - 1:50.92 - (31.0)
1800m - 2:21.46 - (30.5)
2200m - 2:52.20 - (30.7)
2600m - 3:22.86 - (30.6)
3000m - 3:53.58 - (30.7)
3400m - 4:24.23 - (30.6)
3800m - 4:55.23 - (31.0)
4200m - 5:26.34 - (31.1)
4600m - 5:57.64 - (31.3)
5000m - 6:28.83 - (31.1)
5.95 9
8 133 Danil  Sinitsyn RUS RUS 6:31.78200m - 19.68 - (19.6)
600m - 49.49 - (29.8)
1000m - 1:18.91 - (29.4)
1400m - 1:48.48 - (29.5)
1800m - 2:18.52 - (30.0)
2200m - 2:48.70 - (30.1)
2600m - 3:19.74 - (31.0)
3000m - 3:50.69 - (30.9)
3400m - 4:21.78 - (31.0)
3800m - 4:53.55 - (31.7)
4200m - 5:26.14 - (32.5)
4600m - 5:59.02 - (32.8)
5000m - 6:31.77 - (32.7)
8.90 7
9 77 Min Seok  Kim KOR KOR 6:32.15200m - 19.47 - (19.4)
600m - 49.05 - (29.5)
1000m - 1:19.99 - (30.9)
1400m - 1:50.56 - (30.5)
1800m - 2:21.82 - (31.2)
2200m - 2:52.56 - (30.7)
2600m - 3:23.66 - (31.0)
3000m - 3:54.53 - (30.8)
3400m - 4:25.76 - (31.2)
3800m - 4:56.80 - (31.0)
4200m - 5:28.33 - (31.5)
4600m - 5:59.84 - (31.5)
5000m - 6:32.15 - (32.3)
9.27 6
10 109 Thomas-Henrik  Søfteland NOR NOR 6:33.92200m - 20.03 - (20.0)
600m - 50.11 - (30.0)
1000m - 1:20.53 - (30.4)
1400m - 1:51.15 - (30.6)
1800m - 2:21.85 - (30.6)
2200m - 2:52.53 - (30.6)
2600m - 3:23.31 - (30.7)
3000m - 3:54.18 - (30.8)
3400m - 4:25.26 - (31.0)
3800m - 4:56.81 - (31.5)
4200m - 5:28.91 - (32.1)
4600m - 6:01.17 - (32.2)
5000m - 6:33.92 - (32.7)
11.04 5
11 74 Cheol-Min  Kim KOR KOR 6:34.40200m - 19.61 - (19.6)
600m - 50.21 - (30.6)
1000m - 1:20.94 - (30.7)
1400m - 1:51.92 - (30.9)
1800m - 2:22.62 - (30.7)
2200m - 2:53.64 - (31.0)
2600m - 3:24.52 - (30.8)
3000m - 3:55.96 - (31.4)
3400m - 4:27.46 - (31.4)
3800m - 4:59.10 - (31.6)
4200m - 5:30.71 - (31.6)
4600m - 6:02.47 - (31.7)
5000m - 6:34.40 - (31.9)
11.52 4
12 111 Reyon  Kay NZL NZL 6:34.91200m - 20.03 - (20.0)
600m - 50.59 - (30.5)
1000m - 1:21.93 - (31.3)
1400m - 1:53.27 - (31.3)
1800m - 2:24.32 - (31.0)
2200m - 2:55.32 - (31.0)
2600m - 3:26.20 - (30.8)
3000m - 3:57.19 - (30.9)
3400m - 4:28.09 - (30.8)
3800m - 4:59.19 - (31.1)
4200m - 5:30.43 - (31.2)
4600m - 6:01.88 - (31.4)
5000m - 6:34.91 - (33.0)
12.03 3
13 24 Longjiang  Sun CHN CHN 6:35.66200m - 19.49 - (19.4)
600m - 50.57 - (31.0)
1000m - 1:22.04 - (31.4)
1400m - 1:53.28 - (31.2)
1800m - 2:24.31 - (31.0)
2200m - 2:55.19 - (30.8)
2600m - 3:26.24 - (31.0)
3000m - 3:57.26 - (31.0)
3400m - 4:28.20 - (30.9)
3800m - 4:59.07 - (30.8)
4200m - 5:30.31 - (31.2)
4600m - 6:02.08 - (31.7)
5000m - 6:35.66 - (33.5)
12.78 2
14 125 Sergey  Gryaztsov RUS RUS 6:36.63200m - 19.11 - (19.1)
600m - 49.90 - (30.7)
1000m - 1:21.09 - (31.1)
1400m - 1:51.98 - (30.8)
1800m - 2:23.11 - (31.1)
2200m - 2:54.32 - (31.2)
2600m - 3:25.74 - (31.4)
3000m - 3:57.25 - (31.5)
3400m - 4:28.85 - (31.6)
3800m - 5:00.67 - (31.8)
4200m - 5:32.53 - (31.8)
4600m - 6:04.48 - (31.9)
5000m - 6:36.63 - (32.1)
13.75 1
15 140 Livio  Wenger SUI SUI 6:38.69200m - 19.40 - (19.3)
600m - 51.03 - (31.6)
1000m - 1:22.46 - (31.4)
1400m - 1:54.42 - (31.9)
1800m - 2:26.61 - (32.1)
2200m - 2:57.91 - (31.2)
2600m - 3:29.11 - (31.2)
3000m - 3:59.98 - (30.8)
3400m - 4:31.20 - (31.2)
3800m - 5:02.74 - (31.5)
4200m - 5:34.33 - (31.5)
4600m - 6:06.07 - (31.7)
5000m - 6:38.69 - (32.6)
15.81 0
16 145 Ian  Quinn USA USA 6:39.75200m - 19.99 - (19.9)
600m - 51.24 - (31.2)
1000m - 1:22.13 - (30.8)
1400m - 1:53.63 - (31.5)
1800m - 2:25.28 - (31.6)
2200m - 2:57.19 - (31.9)
2600m - 3:28.77 - (31.5)
3000m - 4:00.79 - (32.0)
3400m - 4:32.17 - (31.3)
3800m - 5:04.23 - (32.0)
4200m - 5:36.34 - (32.1)
4600m - 6:08.60 - (32.2)
5000m - 6:39.75 - (31.1)
16.87 0
17 5 Linus  Heidegger AUT AUT 6:39.84200m - 19.80 - (19.8)
600m - 50.96 - (31.1)
1000m - 1:22.25 - (31.2)
1400m - 1:53.61 - (31.3)
1800m - 2:24.83 - (31.2)
2200m - 2:56.33 - (31.5)
2600m - 3:28.06 - (31.7)
3000m - 3:59.83 - (31.7)
3400m - 4:31.55 - (31.7)
3800m - 5:03.19 - (31.6)
4200m - 5:35.31 - (32.1)
4600m - 6:07.45 - (32.1)
5000m - 6:39.84 - (32.3)
16.96 0
18 101 Tormod Bjørnetun  Haugen NOR NOR 6:39.94200m - 19.66 - (19.6)
600m - 50.67 - (31.0)
1000m - 1:22.56 - (31.8)
1400m - 1:54.32 - (31.7)
1800m - 2:26.16 - (31.8)
2200m - 2:57.71 - (31.5)
2600m - 3:29.65 - (31.9)
3000m - 4:01.09 - (31.4)
3400m - 4:32.52 - (31.4)
3800m - 5:03.98 - (31.4)
4200m - 5:35.54 - (31.5)
4600m - 6:07.39 - (31.8)
5000m - 6:39.94 - (32.5)
17.06 0
19 120 Piotr  Puszkarski POL POL 6:44.85200m - 19.33 - (19.3)
600m - 50.67 - (31.3)
1000m - 1:22.55 - (31.8)
1400m - 1:54.63 - (32.0)
1800m - 2:26.20 - (31.5)
2200m - 2:57.95 - (31.7)
2600m - 3:29.50 - (31.5)
3000m - 4:01.15 - (31.6)
3400m - 4:32.94 - (31.7)
3800m - 5:05.13 - (32.1)
4200m - 5:37.65 - (32.5)
4600m - 6:10.70 - (33.0)
5000m - 6:44.84 - (34.1)
21.97 0
20 123 Adrian  Wielgat POL POL 6:45.37200m - 19.28 - (19.2)
600m - 49.60 - (30.3)
1000m - 1:20.52 - (30.9)
1400m - 1:51.43 - (30.9)
1800m - 2:22.44 - (31.0)
2200m - 2:53.16 - (30.7)
2600m - 3:24.39 - (31.2)
3000m - 3:56.09 - (31.7)
3400m - 4:28.43 - (32.3)
3800m - 5:01.26 - (32.8)
4200m - 5:34.89 - (33.6)
4600m - 6:09.69 - (34.8)
5000m - 6:45.37 - (35.6)
22.49 0
21 66 Aoi  Yokoyama JPN JPN 6:47.25200m - 20.06 - (20.0)
600m - 51.01 - (30.9)
1000m - 1:22.03 - (31.0)
1400m - 1:53.15 - (31.1)
1800m - 2:24.71 - (31.5)
2200m - 2:56.48 - (31.7)
2600m - 3:28.47 - (31.9)
3000m - 4:00.79 - (32.3)
3400m - 4:33.06 - (32.2)
3800m - 5:06.20 - (33.1)
4200m - 5:39.68 - (33.4)
4600m - 6:13.30 - (33.6)
5000m - 6:47.25 - (33.9)
24.37 0
22 67 Dmitry  Babenko KAZ KAZ 6:47.30200m - 18.94 - (18.9)
600m - 49.55 - (30.6)
1000m - 1:21.21 - (31.6)
1400m - 1:52.54 - (31.3)
1800m - 2:23.51 - (30.9)
2200m - 2:54.65 - (31.1)
2600m - 3:26.12 - (31.4)
3000m - 3:58.48 - (32.3)
3400m - 4:30.96 - (32.4)
3800m - 5:04.70 - (33.7)
4200m - 5:38.74 - (34.0)
4600m - 6:12.82 - (34.0)
5000m - 6:47.30 - (34.4)
24.42 0
23 32 Inigo  Vidondo ESP ESP 6:50.71200m - 20.64 - (20.6)
600m - 52.39 - (31.7)
1000m - 1:23.79 - (31.4)
1400m - 1:55.42 - (31.6)
1800m - 2:26.88 - (31.4)
2200m - 2:58.50 - (31.6)
2600m - 3:30.25 - (31.7)
3000m - 4:02.21 - (31.9)
3400m - 4:34.78 - (32.5)
3800m - 5:07.88 - (33.1)
4200m - 5:41.28 - (33.3)
4600m - 6:15.45 - (34.1)
5000m - 6:50.71 - (35.2)
27.83 0
24 121 Jan  Szymanski POL POL DNF200m - 18.39 - (18.3)
600m - 48.34 - (29.9)
1000m - 1:18.53 - (30.1)
1400m - 1:48.65 - (30.1)
1800m - 2:18.88 - (30.2)
2200m - 2:49.16 - (30.2)
2600m - 3:19.64 - (30.4)
3000m - 3:50.48 - (30.8)
3400m - 4:21.29 - (30.8)
3800m - 4:53.29 - (32.0)
4200m - 5:33.09 - (39.7)
0